Regional Weather Roundup
Issued by NWS Huntsville, AL

Home | Current Version | Previous Version | Text Only | Print | Product List | Glossary On
Versions: 1 2 3 4 5 6 7 8 9 10 11 12 13 14 15 16 17 18 19 20 21 22 23 24 25 26
000
ASUS44 KHUN 261410
RWRHUN

WEATHER ROUNDUP FOR THE TENNESSEE VALLEY
NATIONAL WEATHER SERVICE HUNTSVILLE AL
900 AM CDT THU MAY 26 2016

ALZ001>004-261500-
NORTHWEST ALABAMA

CITY           SKY/WX    TMP DP  RH WIND       PRES   REMARKS
RUSSELLVILLE     N/A     75 N/A N/A MISG        N/A
SHOALS AIRPORT SUNNY     78  62  57 S8        30.14S
SHOALS TVA RES   N/A     75 N/A N/A MISG        N/A
$$

ALZ005>007-016-261500-
NORTH CENTRAL ALABAMA

CITY           SKY/WX    TMP DP  RH WIND       PRES   REMARKS
CULLMAN AG STN   N/A     73 N/A N/A CALM        N/A
DECATUR AP     SUNNY     77  62  59 SW6       30.16R
HUNTSVILLE AP  MOSUNNY   80  59  48 S10       30.16S
HUN NWS/UAH      N/A     79  59  50 S6          N/A
MERIDIANVILLE  SUNNY     77  54  44 S7        30.16F
REDSTONE ARSN  SUNNY     77  62  60 SW9       30.15S
VINEMONT AP    FAIR      76  61  58 S7        30.19S
$$

ALZ008>010-261500-
NORTHEAST ALABAMA

CITY           SKY/WX    TMP DP  RH WIND       PRES   REMARKS
ALBERTVILLE    SUNNY     79  66  65 SW6       30.18S
FORT PAYNE     SUNNY     75  59  57 S3        30.18S
SCOTTSBORO AP  SUNNY     75  64  69 W7        30.18F
SCOTTSBORO HCN   N/A     75 N/A N/A MISG        N/A
VALLEY HEAD      N/A     75 N/A N/A MISG        N/A
$$

TNZ076-096-097-261500-
SOUTHEASTERN MIDDLE TENNESSEE

CITY           SKY/WX    TMP DP  RH WIND       PRES   REMARKS
TULLAHOMA      SUNNY     75  64  69 SW7       30.17F
WINCHESTER     SUNNY     81  63  54 S8        30.18R
$$

...SURROUNDING SITES...

CITY           SKY/WX    TMP DP  RH WIND       PRES   REMARKS
ATLANTA        PTSUNNY   77  61  57 CALM      30.21S
ANNISTON       SUNNY     77  62  59 E3        30.18F
BIRMINGHAM     MOSUNNY   80  60  50 S7        30.19S
CHATTANOOGA    MOSUNNY   77  63  61 SW3       30.18S
DALTON         SUNNY     73  64  73 SW5       30.19S
GADSDEN        SUNNY     76  64  66 CALM      30.18F
GOLDEN TRNGL   SUNNY     77  64  65 S9        30.12F
HALEYVILLE     CLOUDY    75  62  64 SW8       30.18S
JACKSON TN     SUNNY     77  70  79 S13       30.08R
MEMPHIS        PTSUNNY   79  71  76 S13G21    30.07R
NASHVILLE      PTSUNNY   76  64  66 S8        30.12S
OXFORD MS      FAIR      77  68  73 SW9G17    30.11S
ROME           SUNNY     77  63  61 CALM      30.18S
SAVANNAH       MOSUNNY   79  70  73 SW13      30.10S
TUPELO         CLOUDY    78  67  68 SE7       30.10F
TUSCALOOSA     SUNNY     76  64  66 S5        30.15F
$$

...GULF COAST WEATHER...

CITY           SKY/WX    TMP DP  RH WIND       PRES   REMARKS
GULFPORT       PTSUNNY   80  70  71 SE9       30.13R
PASCAGOULA     PTSUNNY   78  70  76 E5        30.15R
MOBILE         CLOUDY    75  71  87 CALM      30.17R
GULF SHORES    CLOUDY    76  74  93 CALM      30.14R
PENSACOLA      PTSUNNY   79  71  76 SE8       30.14S
DESTIN         CLOUDY    80  75  84 SE9       30.16S
PANAMA CITY    PTSUNNY   78  72  82 VRB7      30.17S
APPALACHICOLA  SUNNY     82  70  66 S12       30.18R
$$





USA.gov is the U.S. government's official web portal to all federal, state and local government web resources and services.